CYGNSS FM07

operational
NORAD ID: 41890 Int'l Des: 2016-078 Owner: LARCN/SWRIB Country: US
LEOCIRCULAR

Über CYGNSS FM07

Beschreibung wird geladen...

Live-Position

3D-Globus wird geladen...

Nächste Überflüge

Höhenverlauf

Altitude vs Time

uPlot chart will show altitude changes over time

Zweizeiliger Elementsatz

1 41890U 16078G 26061.48181749 .00033077 00000-0 48758-3 0 9996
2 41890 34.9443 216.9544 0006679 260.4414 99.5555 15.54334789512354
Epoch: 2. März 2026 • Age: 41 hours

Aktueller Status

Höhe 405.1 km
Geschwindigkeit 7.67 km/s
Subsatellitenpunkt 19.87°N, 65.72°W
Startdatum 15. Dez. 2016
Alter 9.2 years
Typ other

Technische Details

Klassifizierung Payload
Masse 29.00 kg
Trockenmasse 29.00 kg
Gesamtmasse 29.00 kg
Länge 0.27 m
Durchmesser 0.64 m
Spannweite 1.70 m
Form Trunc prism+2 pan
Hersteller SSTUS
Bus-Typ CYGNSS
Phasenstatus In Orbit
Besitzer/Staat LARCN/SWRIB/US

Große Konstellationen

Loading constellations...